GFSCGP_con_3kmhel_246.txt.gz
Helicity
4 21 41 55 35 56 27 40 22 2 68 16 -29 -4 98 70 63 33 -4 31 171 18 31 105 64 151 375 36 393 183 121 189 128 128 127 75 52 48 42 105 63 63 134 96
24 12 45 40 43 34 -2 2 29 22 70 32 -9 8 54 60 39 36 57 22 40 52 13 62 68 38 162 155 254 196 172 247 145 65 92 93 84 48 84 101 67 137 76 102
38 24 18 25 23 -2 4 25 23 34 33 25 4 74 271 302 241 21 23 6 87 53 18 9 44 12 87 211 221 288 171 251 188 92 59 88 90 103 119 156 120 124 79 46
11 50 9 23 9 6 38 26 46 37 12 3 20 145 139 48 110 17 47 39 52 24 68 -3 -28 64 27 130 127 186 206 237 192 145 43 72 108 124 102 142 123 112 167 25
1 48 19 1 12 12 19 36 20 18 7 30 131 102 57 53 46 5 15 41 43 8 58 2 -1 -15 41 19 57 128 192 182 141 98 67 50 85 122 98 152 158 150 101 78
45 -22 19 -6 -2 -2 38 -7 8 24 27 30 188 215 179 56 -11 -34 56 64 19 33 52 28 26 51 86 84 75 96 150 124 126 113 112 86 89 94 90 143 195 146 110 113
15 37 -21 10 2 10 10 33 42 13 14 -35 36 104 27 -69 5 23 77 61 40 71 42 52 49 49 49 58 87 117 113 90 67 74 52 47 95 60 96 191 236 174 60 73
-13 9 10 31 -9 -6 34 36 6 -10 2 119 39 178 -15 -47 -1 40 80 61 63 80 63 80 59 45 42 48 49 61 102 73 67 53 46 68 167 141 120 226 224 191 40 56
6 -2 40 37 10 16 22 14 29 -19 30 69 95 130 267 300 28 26 53 52 69 51 94 69 62 37 46 53 62 71 70 58 56 45 72 77 148 83 88 178 120 126 102 27
52 27 52 40 5 -20 -3 19 40 -1 -17 -65 49 65 12 113 10 37 20 53 58 43 66 68 69 57 46 63 58 61 69 65 48 56 59 64 90 54 52 111 93 89 80 32
43 27 173 93 28 14 39 5 19 0 42 -16 1 20 76 81 -56 55 75 32 50 64 116 94 80 64 62 74 71 64 48 56 63 76 65 56 46 38 8 -24 -38 0 53 49
18 31 72 19 29 11 46 34 21 7 35 78 72 -99 -12 101 18 97 16 46 69 90 154 103 78 72 69 71 58 55 44 36 41 139 85 67 60 28 9 -70 -74 -28 0 16
14 29 33 90 118 6 17 25 17 36 23 -18 41 71 2 43 59 22 75 141 133 150 82 115 103 69 72 68 41 43 37 36 24 77 79 135 104 111 87 83 100 34 -11 -23
65 36 19 132 71 179 83 50 26 29 22 45 19 -56 88 118 98 30 152 62 71 64 178 97 165 133 92 73 61 56 60 55 52 38 19 40 89 84 67 46 30 26 5 -10
43 14 37 21 -23 17 29 36 -1 -1 15 32 46 25 139 68 102 61 88 172 135 118 172 118 125 104 84 79 84 85 78 71 61 55 52 44 28 26 28 21 17 13 19 8
-9 1 45 63 60 55 22 -27 -15 10 -3 -1 10 72 123 92 137 119 116 118 202 155 102 212 149 100 94 94 110 109 97 86 74 80 79 73 64 60 35 20 18 19 16 23
-13 -13 34 79 78 72 -103 50 44 15 58 49 18 117 82 96 110 120 110 75 192 163 157 153 136 124 105 107 111 116 108 105 102 97 101 96 87 79 69 53 38 26 34 33
-1 114 145 143 154 79 36 37 219 51 39 21 22 61 85 85 80 56 56 94 155 133 162 138 90 150 62 58 181 173 101 86 75 65 67 50 52 54 55 58 66 66 54 50
68 121 66 22 164 56 194 51 3 114 43 20 14 114 107 123 42 92 37 87 83 160 152 84 83 87 185 138 112 132 90 91 108 110 117 121 97 64 47 36 36 49 48 53
111 85 71 150 145 47 5 54 42 83 20 36 94 81 82 89 38 43 85 134 96 108 55 82 64 56 72 127 35 108 103 89 109 139 212 156 110 90 57 47 45 46 44 37
165 118 11 37 39 53 37 39 50 36 109 100 43 48 45 134 193 114 97 79 61 64 95 64 72 60 63 137 180 224 187 136 205 223 140 89 71 69 67 69 63 58 62 63
81 46 37 26 5 79 80 44 63 83 65 108 66 34 155 136 134 119 151 215 154 137 131 97 117 190 221 227 190 223 228 215 231 169 114 93 85 70 44 36 39 50 61 45
-16 93 45 75 51 12 39 97 120 113 128 99 144 80 110 76 182 244 221 191 221 201 189 143 205 218 157 116 220 219 177 137 93 87 81 72 67 56 53 58 54 57 60 87
116 37 74 93 71 94 108 91 100 86 73 72 60 63 84 70 104 128 165 242 304 288 271 265 229 204 220 196 184 169 106 122 127 109 87 69 63 65 64 83 84 75 77 79
52 48 59 74 16 42 40 46 61 72 125 67 92 89 86 105 122 157 197 213 211 204 177 199 189 156 158 165 189 177 147 129 106 89 76 67 73 74 69 74 72 65 55 69
30 33 42 24 106 119 117 98 33 76 51 28 49 67 88 129 173 165 178 192 188 196 141 110 107 95 130 117 80 63 71 76 72 79 75 76 67 75 87 78 55 48 49 51

GFSCGP_con_3kmhel_252.txt.gz
Helicity
53 29 24 -45 -30 30 101 65 -4 22 103 124 188 203 117 145 162 172 140 63 18 35 83 209 93 -54 93 243 154 108 130 73 207 172 144 104 84 90 85 100 94 119 111 163
36 -37 -0 31 29 116 111 -9 1 -27 142 127 73 77 125 158 80 87 39 60 49 47 9 253 181 79 139 144 89 -1 30 76 227 233 230 169 144 70 79 80 80 110 132 167
24 16 -36 54 43 44 43 32 5 13 160 152 203 65 118 114 46 39 76 109 36 37 79 218 186 216 152 63 22 14 -9 65 162 244 251 188 162 107 94 71 96 72 154 124
47 97 104 65 68 97 1 5 2 28 51 83 2 97 -3 49 46 -3 143 84 69 55 34 77 191 196 161 125 54 1 -4 19 46 203 239 191 133 114 87 74 85 62 159 213
16 39 32 62 117 13 1 2 20 32 27 12 -56 -17 85 104 53 77 21 -31 16 52 102 52 37 141 170 140 108 80 18 -11 41 85 147 133 57 42 52 60 55 136 145 153
1 -25 -16 63 6 2 27 29 69 34 47 -27 -68 -78 8 47 7 155 87 55 56 90 89 69 91 54 127 138 71 92 60 29 104 114 55 65 51 59 57 34 120 173 202 238
51 50 17 3 37 44 54 77 29 13 36 -10 6 36 27 30 30 39 91 61 89 94 46 44 58 23 66 142 174 150 113 85 93 118 135 85 66 55 77 100 104 121 208 268
73 -73 -33 15 -4 21 3 -6 26 2 42 -10 73 25 10 34 100 69 65 69 112 80 25 19 44 39 60 88 103 130 135 117 132 116 90 69 55 37 70 85 66 67 122 199
-59 -65 11 -15 -12 78 33 21 3 42 104 24 9 19 20 -26 52 50 80 127 136 69 39 24 28 48 61 69 65 69 65 64 64 62 67 57 18 17 6 7 16 30 54 67
25 29 25 -13 52 37 55 19 53 61 88 12 34 -2 67 -57 -31 36 154 140 137 133 87 23 14 30 28 39 38 44 48 60 59 59 51 65 13 -1 1 18 6 -0 -14 24
32 35 71 12 33 10 36 -5 65 53 119 96 104 -55 -9 32 -57 11 81 52 189 274 222 71 30 49 47 50 37 26 33 63 77 83 55 69 70 37 28 33 35 2 -17 9
85 37 27 -17 8 22 -48 44 58 56 45 24 68 -78 53 74 -36 -75 -1 66 171 315 297 249 158 152 91 65 43 32 30 35 74 69 61 65 75 74 54 49 33 40 51 48
54 55 89 74 66 63 82 61 -11 108 88 43 27 -17 33 11 4 -21 -27 68 286 328 348 304 240 141 95 73 65 57 70 69 59 62 59 70 57 53 51 49 71 82 66 42
105 98 64 28 22 26 53 43 -6 22 80 28 37 22 56 -58 -6 -21 5 114 361 369 353 291 193 128 93 95 104 86 93 83 74 67 72 60 38 26 22 20 14 14 2 2
119 116 112 36 23 92 71 17 35 10 -14 29 66 55 -70 -33 4 121 141 162 230 296 368 272 182 115 108 123 108 92 64 56 53 51 37 36 39 32 8 8 3 7 22 22
140 95 161 207 129 95 80 88 101 97 170 174 172 -5 -97 -44 -2 63 165 226 250 263 253 211 168 122 106 81 66 58 64 27 60 44 19 21 39 35 35 25 17 7 4 23
128 135 169 159 145 112 113 69 34 38 88 98 220 -11 13 87 202 239 262 250 276 397 386 239 122 87 37 34 63 73 82 99 130 116 64 46 56 37 35 32 29 19 12 24
139 167 186 151 175 120 48 73 66 84 143 64 39 41 81 193 297 271 263 395 398 353 313 96 -98 40 50 48 113 152 142 123 162 141 93 76 86 103 75 39 19 18 31 42
230 178 198 179 142 103 69 63 66 48 37 75 102 67 169 269 388 386 308 385 299 193 116 43 -20 -98 66 165 165 155 139 124 156 160 168 176 175 146 104 61 19 8 6 12
137 100 165 234 177 106 74 91 49 72 96 138 164 96 158 198 260 168 177 248 271 185 170 61 -21 7 71 176 176 233 249 273 247 184 188 175 149 104 44 1 -17 -24 -2 3
135 144 182 188 190 70 54 34 65 136 50 166 98 65 139 128 133 222 241 216 181 171 67 72 199 248 202 215 212 241 203 227 161 163 145 95 41 -19 -3 -14 -42 -28 24 46
149 110 132 222 215 190 71 30 39 59 100 155 60 141 290 349 349 248 168 98 137 222 282 214 345 326 253 200 172 159 159 101 119 110 109 93 16 31 25 -7 -9 16 34 46
40 5 79 65 111 16 32 97 119 71 43 87 131 103 188 198 152 95 119 219 249 252 253 237 230 211 146 102 64 135 124 152 147 103 76 81 85 71 33 24 21 -0 10 15
76 89 102 199 189 92 -25 97 138 17 88 162 156 131 147 130 99 125 123 146 173 183 226 191 203 175 134 155 221 266 243 211 178 150 120 91 63 42 43 40 26 10 15 13
39 89 35 -53 16 38 45 -36 -19 125 156 186 172 128 141 118 73 95 152 221 263 241 200 181 141 160 205 204 211 198 173 142 119 108 108 96 91 78 66 60 45 27 24 1
-14 -26 -23 -95 -12 63 179 164 157 175 181 178 232 250 204 250 288 333 341 301 269 249 207 209 199 196 206 198 191 179 148 125 102 82 85 85 71 72 78 70 37 43 21 37

GFSCGP_con_3kmhel_255.txt.gz
Helicity
193 57 -79 -56 -39 3 33 13 54 82 15 120 134 165 115 126 264 266 169 125 139 94 162 105 -13 48 114 134 249 226 279 115 81 45 59 87 106 121 123 127 133 114 117 107
138 -22 -29 -25 -23 10 22 32 38 -7 53 80 146 130 151 84 16 84 69 97 100 38 86 98 46 55 66 113 156 142 228 173 166 161 93 117 106 76 84 92 98 111 122 122
2 58 48 -34 -7 53 92 25 -1 30 94 115 144 132 157 148 25 -8 10 -34 -10 80 82 88 89 93 99 46 111 75 121 57 53 103 154 137 169 73 80 63 84 101 141 160
-25 24 34 34 17 16 52 41 5 84 94 54 115 77 98 71 103 56 57 20 36 -8 55 93 111 81 34 12 33 25 52 52 10 -22 77 140 5 2 24 -11 -2 53 129 164
-49 29 41 41 94 86 128 6 11 43 58 76 68 90 25 26 65 148 121 68 29 53 60 76 110 137 93 73 39 1 10 -17 39 -14 21 104 131 73 42 -33 -59 -2 41 119
10 60 37 24 106 80 27 17 89 56 48 78 -31 -54 -28 -10 77 159 110 69 66 87 50 27 41 67 74 59 -14 -19 -5 -5 -3 3 39 37 54 43 49 43 40 99 103 148
50 84 43 34 79 32 96 98 71 27 64 2 11 -9 -58 23 58 94 38 39 75 85 61 44 36 21 39 66 45 25 8 -3 15 38 82 66 64 62 34 40 65 60 56 88
102 176 2 3 14 -3 60 53 70 24 34 -3 -16 16 35 104 119 117 44 -10 115 77 52 46 33 17 22 31 40 39 52 56 95 110 89 75 84 37 -15 7 42 48 40 61
132 110 80 33 35 32 11 53 26 52 68 61 13 19 7 44 98 94 86 70 108 93 33 52 55 51 34 31 31 60 85 80 65 77 73 82 53 27 33 3 8 11 3 -7
49 15 30 51 -8 -15 38 54 45 73 78 17 43 4 111 55 76 67 70 24 88 113 41 47 72 87 66 59 51 54 54 55 51 59 43 43 46 40 42 45 28 31 32 14
77 30 44 22 22 -39 55 36 70 61 53 37 20 -35 126 82 29 61 45 35 77 134 80 75 52 71 76 58 51 45 44 49 55 52 50 43 39 44 48 51 54 39 42 38
64 16 60 41 -14 39 49 45 65 96 78 130 42 14 -2 24 12 -29 10 28 100 159 62 148 126 126 123 66 48 47 37 31 28 58 52 50 40 46 54 60 58 50 48 42
73 67 92 68 42 66 105 79 97 101 135 68 25 -38 -9 19 9 74 29 33 100 226 195 193 182 145 70 69 64 74 61 52 46 39 32 28 31 32 29 26 46 44 38 37
151 88 58 63 9 55 119 94 82 105 86 21 6 9 -10 29 -26 -16 25 69 102 302 317 258 212 142 72 65 77 69 58 64 50 33 13 17 2 9 18 18 4 12 23 29
162 51 68 99 89 103 60 81 119 161 87 49 24 36 -17 38 18 45 90 166 222 499 575 405 204 136 46 69 46 65 71 38 15 35 20 3 -6 -4 2 5 5 2 10 28
146 126 164 199 214 140 125 67 47 63 94 106 52 48 15 -36 104 96 182 240 361 595 574 295 -135 230 3 42 50 65 48 18 36 67 55 51 39 35 24 23 17 12 3 10
136 166 133 115 178 168 154 58 61 54 81 98 99 80 102 55 93 152 188 287 403 573 427 237 71 52 -4 2 46 34 49 60 88 116 113 102 91 96 94 75 43 32 16 12
138 211 178 162 191 142 110 120 97 100 62 70 73 94 90 126 207 240 247 446 460 461 278 167 191 21 7 -52 -46 44 107 141 149 154 120 114 139 169 167 150 81 41 10 12
178 160 172 154 162 134 165 129 115 108 60 41 110 95 127 222 267 280 205 301 356 258 194 67 75 -23 11 -18 10 25 147 194 139 117 153 177 178 160 158 127 70 24 -10 -6
102 127 159 184 196 166 132 105 93 91 70 77 103 97 177 237 205 151 245 245 171 134 12 36 38 31 17 21 116 135 133 185 189 137 154 139 166 155 101 42 31 18 -11 1
145 129 124 204 234 204 124 83 73 201 69 97 65 72 212 136 82 255 312 196 115 92 91 84 53 53 92 90 144 157 203 113 66 158 107 126 157 78 28 58 55 27 9 22
116 175 193 204 212 186 115 155 198 119 78 32 -7 87 104 75 194 320 215 196 180 202 198 194 191 169 166 153 150 174 158 112 94 118 161 178 128 87 74 56 55 46 54 38
129 109 119 103 94 175 183 284 90 56 67 44 29 91 166 209 214 148 156 243 293 248 219 179 179 197 201 174 180 190 151 159 190 216 184 155 124 99 85 75 66 67 59 43
85 88 103 147 96 118 111 69 52 13 25 104 84 91 93 107 92 171 227 256 261 254 187 116 169 191 184 168 182 183 212 192 171 157 137 117 98 88 75 79 85 82 78 60
66 110 78 31 19 60 134 -1 71 95 161 219 168 119 115 168 178 206 214 226 195 171 181 197 202 201 185 176 191 182 154 126 107 90 75 70 72 69 54 58 67 78 92 96
28 51 51 20 -25 40 -23 3 50 133 139 189 183 142 168 165 207 255 247 227 211 207 197 223 213 192 174 178 184 141 94 80 64 50 56 70 75 71 55 42 33 75 78 68

GFSCGP_con_3kmhel_261.txt.gz
Helicity
131 60 10 5 21 21 1 23 38 33 1 -4 9 24 48 92 100 107 96 122 93 122 99 78 75 86 130 120 84 59 51 47 53 37 23 36 30 40 8 -23 -16 -10 9 1
132 9 24 9 12 2 12 43 60 8 14 11 2 11 38 90 105 105 77 72 67 83 108 95 79 65 79 118 114 57 37 46 26 26 51 51 68 23 -39 11 35 -8 -13 13
64 101 40 -21 6 -7 16 39 35 20 1 51 25 -8 50 75 88 100 45 26 27 30 63 86 94 75 38 45 71 39 33 20 7 30 54 74 68 17 -75 -66 25 54 5 -10
110 132 50 -7 5 -27 19 8 12 -7 9 37 28 10 46 102 114 112 73 16 17 17 53 51 38 57 58 51 25 36 25 31 37 43 62 72 60 43 89 46 24 29 -10 -16
86 76 19 44 -21 -14 12 6 31 -8 32 29 51 71 55 58 105 118 93 18 -7 3 23 16 26 29 30 32 50 45 29 21 38 34 24 41 60 65 42 23 23 9 -48 -25
138 125 149 57 40 18 34 27 36 45 57 60 62 69 11 64 84 111 99 9 -15 -37 1 -0 7 10 21 40 54 68 66 24 27 44 42 34 41 51 45 45 55 -22 -30 -17
115 62 82 67 46 23 38 33 78 85 91 49 36 32 -2 -23 70 70 114 14 -9 -15 1 10 26 15 47 59 62 65 71 40 16 37 42 54 66 58 52 50 46 39 23 37
46 55 49 38 13 45 31 55 86 66 12 22 35 -3 16 6 105 118 125 25 10 -12 -15 1 40 39 35 38 58 66 67 44 46 45 59 63 60 50 49 46 37 32 23 14
40 73 50 56 71 50 55 44 74 97 82 20 48 18 -10 36 121 111 87 8 15 -47 -32 -8 37 52 39 37 59 77 82 70 57 58 73 84 78 76 68 52 26 12 13 31
68 82 88 81 57 87 77 62 49 63 36 6 37 11 -5 -10 88 69 51 13 32 8 5 23 50 72 57 40 46 69 61 70 69 61 62 71 82 82 84 62 43 19 -2 3
78 140 114 104 63 54 69 70 115 104 73 43 11 -8 -1 3 -21 60 12 16 58 80 75 70 90 105 79 68 42 44 43 55 55 55 62 72 84 79 49 47 49 36 17 -9
48 114 122 95 76 62 39 62 42 39 44 64 67 2 19 -56 -28 35 16 28 94 114 126 125 127 129 137 109 74 41 27 20 29 36 49 43 39 22 13 18 31 35 30 20
56 143 98 79 102 53 67 50 37 61 59 55 35 10 51 -7 21 96 40 75 112 150 177 190 251 183 163 121 98 72 31 7 -5 -19 -45 -46 -12 2 13 20 25 13 21 28
83 70 92 64 82 63 39 32 34 14 42 59 20 -9 31 -3 45 136 120 113 137 192 232 234 239 195 108 94 134 169 90 27 -5 -51 -67 -41 -18 20 33 26 42 38 28 27
74 12 54 29 45 37 29 30 71 46 47 15 29 5 16 -1 46 92 167 154 163 212 241 236 213 72 115 288 265 110 176 39 26 -26 -42 -11 -7 26 74 70 59 60 45 39
113 54 27 46 60 24 50 43 52 38 50 21 26 8 33 1 38 98 156 173 164 214 214 163 54 63 75 84 67 69 105 20 31 -0 3 18 33 43 47 60 98 122 88 58
24 28 36 63 59 50 65 27 60 79 63 51 39 48 29 30 33 89 127 143 185 262 191 55 53 48 5 46 77 111 90 65 49 49 51 57 56 45 74 106 137 147 111 76
93 109 98 64 81 94 84 54 89 69 68 80 56 29 39 11 41 23 55 84 123 137 45 112 61 29 53 38 62 86 90 82 75 87 92 69 54 64 82 93 121 135 108 69
99 149 108 88 78 116 73 64 115 134 68 122 94 82 77 67 64 39 43 41 54 88 166 124 47 89 114 86 55 68 86 82 91 80 85 89 100 108 102 116 130 125 109 88
118 81 80 105 101 97 113 136 165 183 81 130 124 85 82 83 81 78 152 176 179 236 229 115 70 82 117 75 75 94 95 95 113 106 108 127 129 129 151 145 124 124 114 95
141 146 111 104 109 113 98 140 176 143 85 161 121 108 100 114 85 70 201 280 260 262 168 99 32 37 78 67 79 125 144 142 104 117 145 169 178 175 152 135 129 119 105 98
62 72 105 123 124 97 105 175 156 160 119 125 127 105 138 76 29 67 162 141 189 214 91 54 36 78 136 104 96 116 134 110 126 137 158 158 144 121 117 113 102 98 94 81
49 89 90 79 100 125 94 154 157 129 94 140 113 77 75 18 -12 -70 -59 44 -28 69 -12 25 36 119 166 133 106 122 112 117 113 115 112 101 95 103 104 104 96 82 95 100
57 80 72 62 71 53 50 52 59 73 108 156 73 26 13 -21 -71 -28 -24 -35 34 12 40 29 61 126 136 130 135 126 110 107 108 105 101 96 91 93 96 88 105 99 102 100
114 86 88 69 48 36 35 40 39 27 60 58 33 25 -16 18 10 16 5 37 46 60 66 72 110 120 121 107 91 83 92 83 64 64 63 66 64 62 56 67 74 71 80 86
58 64 56 62 43 46 64 37 23 30 56 51 66 36 -18 15 58 68 73 71 78 96 100 135 133 130 105 84 78 78 96 73 52 42 42 44 38 40 39 38 42 46 26 35